Location: ShareBrained
(45.5589°N, 122.6491°W)
Time: 02:53:54
(UTC-07:00)

NOAA 19 - Visible Passes

Search period start: 23 April 2019 00:00
Search period end: 03 May 2019 00:00
Orbit: 841 x 861 km, 99.2° (Epoch: 22 April)

Date Brightness Start Highest point End Pass type
(mag) Time Alt. Az. Time Alt. Az. Time Alt. Az.
24 Apr 7.1 05:37:08 10° NNE 05:42:02 32° E 05:46:53 10° SSE visible
25 Apr 7.5 05:25:45 10° NE 05:30:17 26° E 05:34:47 10° SSE visible
26 Apr 7.8 05:14:28 10° NE 05:18:31 21° E 05:22:32 10° SE visible
27 Apr 7.9 05:03:20 10° NE 05:06:43 16° E 05:10:05 10° SE visible
28 Apr 8.1 04:52:31 10° ENE 04:54:54 13° E 04:57:17 10° ESE visible
